This is the latest recevied weather packets stored in our database for station/object SV2RIM-2. If no packets are shown the sender has not sent any weather packets the latest 10 day(s).
| Time | Temp. | Humidity | Pressure | Rain* | Wind** | Luminosity | Snow |
|---|---|---|---|---|---|---|---|
| 1777662019 | 9.44° C | 70% | 1021.8 hPa | - | - | - | - |
| 1777661419 | 9.44° C | 69% | 1021.7 hPa | - | - | - | - |
| 1777660819 | 9.44° C | 69% | 1021.6 hPa | - | - | - | - |
| 1777660219 | 9.44° C | 70% | 1021.5 hPa | - | - | - | - |
| 1777659619 | 9.44° C | 71% | 1021.4 hPa | - | - | - | - |
| 1777659019 | 9.44° C | 72% | 1021.2 hPa | - | - | - | - |
| 1777658419 | 9.44° C | 74% | 1021.1 hPa | - | - | - | - |
| 1777657819 | 10° C | 72% | 1021 hPa | - | - | - | - |
| 1777657219 | 10° C | 76% | 1020.9 hPa | - | - | - | - |
| 1777656623 | 10° C | 72% | 1020.8 hPa | - | - | - | - |
| 1777656319 | 10° C | 71% | 1020.7 hPa | - | - | - | - |
| 1777655422 | 10° C | 70% | 1020.7 hPa | - | - | - | - |
| 1777654819 | 10° C | 69% | 1020.6 hPa | - | - | - | - |
| 1777654222 | 10° C | 69% | 1020.5 hPa | - | - | - | - |
| 1777653923 | 10° C | 69% | 1020.2 hPa | - | - | - | - |
| 1777653019 | 10.56° C | 69% | 1020.6 hPa | - | - | - | - |
| 1777652419 | 10.56° C | 68% | 1020.5 hPa | - | - | - | - |
| 1777651820 | 10.56° C | 60% | 1020.5 hPa | - | - | - | - |
| 1777651520 | 10.56° C | 59% | 1020.5 hPa | - | - | - | - |
| 1777650919 | 11.11° C | 59% | 1020.4 hPa | - | - | - | - |
| 1777650319 | 11.11° C | 59% | 1020.3 hPa | - | - | - | - |
| 1777649719 | 11.67° C | 58% | 1020.2 hPa | - | - | - | - |
| 1777649119 | 11.67° C | 55% | 1020.2 hPa | - | - | - | - |
| 1777648519 | 11.67° C | 54% | 1020.2 hPa | - | - | - | - |
| 1777647919 | 11.67° C | 54% | 1020.2 hPa | - | - | - | - |
* Rain since midnight (hover to see other rain measurements)
** Current wind speed in m/s (hover to see current wind gust speed)